Other Public Products
Issued by NWS Grand Forks, ND

Home | Current Version | Previous Version | Text Only | Print | Product List | Glossary Off
Versions: 1 2 3 4 5 6 7 8 9 10 11 12 13 14 15 16 17 18 19 20 21 22 23 24 25 26 27 28 29 30 31 32 33 34 35 36 37 38 39 40 41 42 43 44 45 46 47 48 49 50

000
FPUS83 KFGF 011310
OPUFGF
PRAIRIE TO PINES WEATHER ROUNDUP
NATIONAL WEATHER SERVICE EASTERN NORTH DAKOTA/GRAND FORKS ND
700 AM CST SUN FEB 01 2015

 **SATELLITE DATA USED TO AUGMENT SKY COVER AT AUTOMATED STATIONS**
 *****  WEATHER ACROSS EASTERN NORTH DAKOTA  *****

CITY           SKY/WX    TMP DP  RH WIND       PRES   REMARKS
GRAND FORKS    PTCLDY   -12 -20  67 N15       30.57S WCI -35
GRAND FORKS AF MOCLDY   -12 -21  64 N13       30.57S WCI -34
GRAND CITY NWS   N/A    -13 N/A N/A N13         N/A  WCI -34
BUXTON         NOT AVBL
DEVILS LAKE    MOCLDY   -13 -22  64 N7        30.49S WCI -29
FARGO          CLOUDY    -6 -14  68 N21       30.48R WCI -30
WAHPETON ARPT  CLOUDY     0 -11  60 N20G25    30.41R WCI -22
$$

 *****  WEATHER ACROSS CENTRAL AND WESTERN NORTH DAKOTA  *****

CITY           SKY/WX    TMP DP  RH WIND       PRES   REMARKS
JAMESTOWN      CLOUDY    -7 -15  68 N17       30.45R WCI -30
BISMARCK       MOCLDY    -6 -15  65 N10       30.49S WCI -24
MINOT          PTCLDY   -11 -18  71 NW5       30.51R WCI -23
MINOT AFB      PTCLDY   -10 -17  72 NW6       30.52R WCI -24
GARRISON         N/A     -9 -16  71 N7        30.48R WCI -24
WILLISTON      MOCLDY   -15 -20  78 W3        30.50S
DICKINSON      MOCLDY    -6 -11  79 NW6       30.38R WCI -19
HETTINGER      LGT SNOW  -3  -8  79 N8        30.38R WCI -18
$$

 *****  OTHER OBSERVATIONS NORTHEAST NORTH DAKOTA  *****

CITY           SKY/WX    TMP DP  RH WIND       PRES   REMARKS
WALHALLA         N/A    -13 -20  70 NW5       30.59S WCI -25
LANGDON        NOT AVBL
CAVALIER       FAIR     -11 -18  70 N6        30.60S WCI -25
GRAFTON        NOT AVBL
CANDO          FAIR     -15 -22  70 N6        30.53S WCI -29
FORT TOTTEN    NOT AVBL
ROLLA          FAIR     -15 -22  70 NW3       30.48S
RUGBY          FAIR     -13 -20  70 CALM      30.52S
 ***** THE ABOVE OBSERVATIONS ARE NON NWS ARE NOT QUALITY
        CONTROLLED AND MAY MIS-REPORT RAIN FOR SNOW...
$$

 *****  OTHER OBSERVATIONS SOUTHEAST NORTH DAKOTA *****

CITY           SKY/WX    TMP DP  RH WIND       PRES   REMARKS
COOPERSTOWN    NOT AVBL
VALLEY CITY    CLOUDY    -8 -13  77 N17G23    30.45R WCI -31
OAKES            N/A     -4 -11  71 N22       30.42R WCI -28
GWINNER        CLOUDY    -4 -13  65 N24       30.43R WCI -29
BUFFALO        NOT AVBL
WYNDMERE         N/A     -6 -15  65 N17         N/A  WCI -28
 ***** THE ABOVE OBSERVATIONS ARE NON NWS ARE NOT QUALITY
       CONTROLLED AND MAY MIS-REPORT RAIN FOR SNOW...
$$

  *****  WEATHER ACROSS NORTHERN MINNESOTA  *****

CITY           SKY/WX    TMP DP  RH WIND       PRES   REMARKS
FLAG ISLAND    MOCLDY   -22 -27  76 NW9       30.51S WCI -42
WARROAD        MOCLDY   -18 -27  63 NW3       30.51S
ROSEAU         FAIR     -17 -24  70 N3        30.53S
HALLOCK        PTCLDY   -15 -22  70 N7        30.58S WCI -31
THF RVR FALLS  PTCLDY   -13 -18  77 N9        30.50S WCI -31
HALSTAD          N/A     -9 -17  68 N20         N/A  WCI -33
FOSSTON        PTCLDY   -15 -18  84 N10       30.45S WCI -35
BAUDETTE       MOCLDY   -17 -22  78 N6        30.49S WCI -32
WASKISH        MOCLDY   -17 -22  76 CALM      30.46S
CROOKSTON      FAIR     -11 -17  77 N13       30.55S WCI -32
$$
  *****  WEATHER ACROSS CENTRAL AND WEST MINNESOTA  *****

CITY           SKY/WX    TMP DP  RH WIND       PRES   REMARKS
BEMIDJI        PTCLDY   -13 -18  77 N5        30.41S WCI -25
PARK RAPIDS    PTCLDY    -6 -16  61 N12       30.35S WCI -25
WADENA         MOCLDY    -4 -11  71 N14       30.32S WCI -24
DETROIT LAKES  PTCLDY    -4 -13  65 NE8       30.38R WCI -19
MOORHEAD       PTCLDY    -4 -11  71 N17G24    30.46S WCI -26
FERGUS FALLS   PTCLDY     0 -13  55 NE10      30.40R WCI -17
ELBOW LAKE     FAIR       1  -7  69 N13       30.33R WCI -17
MORRIS MN      MOCLDY     5  -4  66 N16G22    30.30R WCI -14
STAPLES        PTCLDY    -2  -9  71 N9        30.32S WCI -18
WHEATON        CLOUDY    -2  -9  71 N22       30.39R WCI -26
$$
  *****  WEATHER ELSEWHERE ACROSS MINNESOTA  *****

CITY           SKY/WX    TMP DP  RH WIND       PRES   REMARKS
DULUTH         MOCLDY    -2  -9  72 N9        30.30R WCI -18
INTRNTL FALLS  PTCLDY   -18 -24  74 N6        30.46F HAZE    WCI -33
ELY            PTCLDY   -17 -20  83 CALM      30.38S
CLOQUET        MOCLDY    -2  -8  78 N9        30.30S WCI -18
BRAINERD       MOCLDY    -1  -9  68 N12       30.33R WCI -18
HIBBING        PTCLDY    -9 -18  64 N8        30.37R WCI -25
ALEXANDRIA     PTCLDY     2  -7  66 NE17      30.28R WCI -18
SAINT CLOUD    CLOUDY     6  -2  69 N12G23    30.26R WCI  -9
MINNEAPOLIS    FLURRIES  15   6  67 NE15      30.20R WCI   0
$$

  *****  WEATHER ACROSS SOUTH DAKOTA  *****

CITY           SKY/WX    TMP DP  RH WIND       PRES   REMARKS
SIOUX FALLS    LGT SNOW   8   3  80 N29G36    30.14R VSB 3/4 WCI -15
BROOKINGS      NOT AVBL
WATERTOWN      CLOUDY    -1  -6  79 N21       30.23R WCI -24
HURON          LGT SNOW   0  -5  79 N21G30    30.32R WCI -22
SISSETON         N/A     -2  -9  72 N21       30.38R WCI -25
ABERDEEN       LGT SNOW  -1  -8  72 N23       30.39R WCI -25
MITCHELL       LGT SNOW   3  -1  83 N21       30.28R FOG     WCI -18
PIERRE         LGT SNOW  -1  -7  75 N22       30.37R WCI -24
MOBRIDGE       LGT SNOW  -3 -10  72 N15       30.39R WCI -23
RAPID CITY     MOCLDY     2  -2  83 N16       30.29R WCI -18
$$

  *****  SOME WEATHER IN NEARBY STATES *****

CITY           SKY/WX    TMP DP  RH WIND       PRES   REMARKS
GLASGOW MT     PTCLDY    -4  -7  87 S6        30.45F WCI -16
GREAT FALLS MT CLOUDY    -3  -6  87 S8        30.25F WCI -18
CHEYENNE WY    LGT SNOW  15  11  83 N10       30.02S FOG     WCI   2
SCOTTSBLUFF NE CLOUDY    17  12  80 N10       30.16R WCI   5
OMAHA NE       LGT SNOW  27  25  92 N23G31    29.87R VSB 3/4 WCI  12
DES MOINES IA  LGT SNOW  33  31  92 NE9       29.79F VSB 1
DAVENPORT IA   LGT SNOW  31  29  92 E22G28    29.86S VSB 3/4 WCI  18
CHICAGO IL     SNOW      30  29  96 NE16      29.95F VSB 1/2 WCI  19
EAU CLAIRE WI  LGT SNOW  12   3  67 E17G25    30.19R WCI  -5
LA CROSSE WI   LGT SNOW  17  10  74 NE17G24   30.14R WCI   1
$$

  *****  SOME NATIONAL WEATHER *****

CITY           SKY/WX    TMP DP  RH WIND       PRES   REMARKS
LA GUARDIA NY  MOCLDY    27  13  55 SW6       30.23R WCI  20
RALEIGH NC     MOCLDY    37  20  50 S3        30.27F
ATLANTA GA     MOCLDY    40  30  67 SE6       30.20S
NEW ORLEANS LA CLOUDY    60  57  89 SE10      30.00F
OKLAHOMA CITY  CLOUDY    42  36  79 NW31G40   29.89R
ALBUQUERQUE NM PTCLDY    34  30  85 NW3       30.05R
SALT LAKE CITY PTCLDY    29  24  82 SE5       30.20R WCI  24
LOS ANGELES CA CLEAR     52  50  93 CALM      30.03R
BOISE ID       CLOUDY    34  23  64 SE9       30.18R
SEATTLE WA     FOG       41  40  96 SE9       30.06F VSB 1/4
$$

*** WEATHER ACROSS MANITOBA...SASKATCHEWAN AND ONTARIO ***
                ***ONTARIO***

CITY           SKY/WX    TMP DP  RH WIND       PRES   REMARKS
GERALDTON      PTCLDY   -35 -40  74 W3        30.40S
THUNDER BAY    PTCLDY   -20 -26  76 W5        30.50F WCI -33
SIOUX LOOKOUT  CLEAR    -33 -40  68 N3        30.45S
TORONTO        FLURRIES  12   7  79 N16       30.25R WCI  -4
BIG TROUT LK   CLEAR    -26 -33  68 W10       30.34F WCI -48
PICKLE LAKE    CLEAR    -27 -35  68 W7        30.39S WCI -46
DRYDEN         CLEAR    -24 -29  76 NW2       30.45S
KENORA         CLEAR    -26 -31  75 N8        30.47S WCI -45
$$
                *** MANITOBA***

CITY           SKY/WX    TMP DP  RH WIND       PRES   REMARKS
BRANDON        CLEAR    -24 -29  76 W8        30.55F WCI -43
DAUPHIN        CLEAR    -15 -22  70 W12       30.54F WCI -36
ISLAND LAKE    CLEAR    -26 -33  68 W7        30.43F WCI -44
PILOT MOUND      N/A    -20 -27  69 W2          N/A
THE PAS        CLEAR    -31 -38  68 S3        30.48F
THOMPSON       CRYSTALS -29 -35  75 W6        30.37F WCI -46
WINNIPEG       CLEAR    -20 -26  76 NW2       30.61F
LYNN LAKE      MOCLDY   -24 -29  76 W7        30.29F WCI -42
CHURCHILL      CRYSTALS -26 -31  75 W10       30.27F WCI -48
GILLAM         CLEAR    -26 -33  68 W8        30.33F WCI -45
$$
                ***SASKATCHEWAN***

CITY           SKY/WX    TMP DP  RH WIND       PRES   REMARKS
ESTEVAN        PTCLDY   -13 -18  77 SW2       30.48F
KINDERSLEY     PTCLDY   -13 -17  84 S8        30.34F WCI -30
LLOYDMINSTER     N/A     -6  -9  84 S8        30.26F WCI -21
PRINCE ALBERT  CLEAR    -29 -35  75 CALM      30.43F
REGINA         PTCLDY   -17 -20  83 S6        30.47F WCI -31
YORKTON        CLEAR    -18 -26  69 SW7       30.48F WCI -35



USA.gov is the U.S. government's official web portal to all federal, state and local government web resources and services.